STARLINK-11441, 62413

Orbit data source: Space-Track

STARLINK-11441, 62413 is a payload satellite owned by SpaceX/Seattle (US) in LEO that was launched on Mon, 23 Dec 2024 UTC via an FALCON 9 launch vehicle from the Air Force Eastern Test Range (AFETR). Payload-class satellites include a variety of spacecraft equipped with specific instruments for various scientific and technological missions. These include communications satellites like Starlink; space stations such as the ISS; scientific satellites like the Hubble; Earth observation satellites from companies like Planet Labs, Umbra, and HawkEye 360; GPS; miniature CubeSats for education and research; and military/defense satellites.

Loading next visibility...
Identifier
62413, 2024-249E
Orbit
LEO
Country
Flag of USUS
Related business
Manufacturer
SpaceX/Seattle
Mission
Operational Commercial Communications
Bus & Motor
STARLINK V2MD, Unknown motor
Mass
960 kg wet, ~910 kg dry
Launch date (UTC)
2024-12-23 (1 year ago)
Launch vehicle
FALCON 9
Launch site
Air Force Eastern Test Range (AFETR)
Object type
Payload
Rocket body
Debris
Shape & HBR
Box + 2 Pan, 18.1 m
Radar Cross Section
36.964 m², Large (>1 m²)

Expand to show TLE details & history
Last TLE update: 1 day ago

TLE from 1 day ago
0 STARLINK-11441
1 62413U 24249E   26170.67607916  .00127359  00000-0  97797-3 0  9994
2 62413  42.9978 272.6301 0001645 270.2918  89.7761 15.70910822 85526
Epoch: 2026-06-19T16:13Z
TLE epoch observation values (Epoch: 2026-06-19T16:13:33.239Z)
Latitude
-0.00003°
Longitude
121.33994°
Altitude
356.059 km
Speed
7.697 km/s
True Right ascension
18h 10m 31s
True Declination
0° 00' 00"
Sunlit
Object was in full shadow at epoch
Visualization orbit readout
Latitude
Unknown
Longitude
Unknown
Altitude
Unknown
Speed
Unknown
Apparent Right ascension
Unknown
Apparent Declination
Unknown
Sunlit
N/A
Visualization observer readout
Local Sidereal Time
07:18:23
Azimuth
Unknown
Elevation
Unknown
Doppler factor
Unknown
Orbital elements
Apogee altitude
359.383 km
Perigee altitude
357.167 km
Semi-major axis
6,736.412 km
Eccentricity
0.00016
Inclination
42.9978°
RAAN
272.6301°
Arg. of periapsis
270.2918°
True anomaly
89.79495°
Mean anomaly
89.7761°
Eccentric anomaly
89.78553°
Mean motion
3.92555 °/min
Orbital period
91.71 mins
BSTAR
0.00097797
Loading maneuver chart data...
Computing Atmospheric mass density...
Loading historical data...
Loading historical data...
Loading historical data...
Loading historical data...
Loading historical data...
Loading historical data...
Loading historical data...

Documentation

Showing up to 5 results
|